Location: West Cummington
(42.4920°N, 72.9680°W)
Time: 13:53:55
(UTC-04:00)

Cosmos 1703 Rocket - Visible Passes

Search period start: 04 August 2015 00:00
Search period end: 14 August 2015 00:00
Orbit: 605 x 636 km, 82.5° (Epoch: 03 August)

Date Brightness Start Highest point End Pass type
(mag) Time Alt. Az. Time Alt. Az. Time Alt. Az.
05 Aug 6.9 05:17:03 10° ESE 05:18:26 12° E 05:20:04 10° ENE visible
09 Aug 6.6 04:49:50 10° ESE 04:51:40 13° E 04:53:43 10° ENE visible
10 Aug 6.0 05:05:51 10° SE 05:09:15 24° E 05:12:45 10° NE visible
13 Aug 6.4 04:22:43 10° ESE 04:24:53 14° E 04:27:16 10° NE visible
